DW7621 Weather Reports


Display with metric or nautical units.
time (UTC)temp
F
wind
direction
speed
MPH
gust
MPH
rain 1hr
in
rain 24hr
in
rain mn
in
humidity
%
barometer
mb
20191020081555 52 190 0.0 2.0 0.00 0.04 0.01 79 1008.5
20191020080141 51 190 0.0 2.0 0.00 0.04 0.01 79 1008.6
20191020074617 51 194 0.0 3.0 0.00 0.10 0.01 79 1008.3
20191020073114 50 197 0.0 2.0 0.01 0.10 0.01 79 1008.4
20191020071525 49 197 0.0 1.0 0.01 0.10 0.01 81 1008.1
20191020070047 48 197 0.0 0.0 0.01 0.10 0.01 81 1008.0
20191020064555 48 197 0.0 0.0 0.01 0.13 0.01 83 1008.0
20191020063055 48 197 0.0 0.0 0.00 0.12 0.00 83 1008.0
20191020061519 48 197 0.0 1.0 0.00 0.12 0.00 82 1007.8
20191020060019 48 197 0.0 0.0 0.00 0.12 0.00 83 1007.9
20191020054509 49 197 0.0 0.0 0.00 0.13 0.00 83 1007.9
20191020053008 49 197 0.0 0.0 0.00 0.13 0.00 83 1007.8
20191020051707 49 197 0.0 0.0 0.00 0.13 0.00 83 1007.7
20191020050329 50 197 0.0 0.0 0.00 0.13 0.00 83 1007.6
20191020044652 50 197 0.0 0.0 0.00 0.15 0.00 83 1007.3
20191020043206 50 197 0.0 0.0 0.00 0.15 0.00 83 1007.2
20191020041640 51 197 0.0 0.0 0.00 0.15 0.00 83 1007.2
20191020040216 51 197 0.0 1.0 0.00 0.15 0.00 83 1007.2
20191020033257 51 197 0.0 2.0 0.00 0.15 0.00 83 1007.0
20191020031659 51 197 0.0 2.0 0.00 0.15 0.00 83 1007.0
20191020030144 51 197 0.0 3.0 0.00 0.15 0.00 83 1007.1
20191020024745 51 197 0.0 3.0 0.00 0.16 0.00 83 1007.1
20191020023113 51 197 0.0 0.0 0.00 0.16 0.00 84 1006.8
20191020021636 51 197 0.0 2.0 0.00 0.16 0.00 84 1006.7
20191020020130 51 197 0.0 0.0 0.00 0.16 0.00 84 1006.6
20191020014728 51 197 0.0 0.0 0.00 0.16 0.00 84 1006.7
20191020013130 51 197 0.0 0.0 0.00 0.16 0.00 84 1006.7
20191020011736 52 197 0.0 0.0 0.00 0.16 0.00 84 1006.9
20191020010122 52 197 0.0 1.0 0.00 0.16 0.00 84 1006.9
20191020004631 52 197 0.0 3.0 0.00 0.16 0.00 84 1006.9
20191020003103 52 197 0.0 2.0 0.00 0.16 0.00 84 1006.9
20191020001614 52 200 0.0 4.0 0.00 0.16 0.00 84 1006.8
20191020000117 52 200 0.0 4.0 0.00 0.16 0.00 84 1006.7
20191019234611 52 204 1.0 5.0 0.00 0.16 0.00 84 1006.8
20191019233111 52 204 0.0 4.0 0.00 0.16 0.00 84 1006.7
20191019231647 52 201 0.0 4.0 0.00 0.16 0.00 84 1006.7
20191019230106 51 200 0.0 4.0 0.00 0.16 0.00 85 1006.7
20191019224616 51 196 0.0 4.0 0.00 0.16 0.00 85 1006.6
20191019223134 51 197 0.0 1.0 0.00 0.16 0.00 85 1006.6
20191019221637 51 198 0.0 1.0 0.00 0.16 0.00 86 1006.4
20191019220101 52 213 0.0 1.0 0.00 0.16 0.00 86 1006.3
20191019214546 52 213 0.0 4.0 0.00 0.16 0.16 86 1006.2
20191019211606 52 193 0.0 1.0 0.00 0.16 0.16 86 1006.0
20191019210111 52 193 0.0 4.0 0.00 0.16 0.16 86 1005.9
20191019204553 53 225 0.0 4.0 0.00 0.16 0.16 87 1006.0
20191019203043 53 213 0.0 6.0 0.00 0.16 0.16 87 1005.8
20191019201538 53 175 0.0 6.0 0.00 0.16 0.16 87 1005.7
20191019200039 53 212 1.0 4.0 0.00 0.16 0.16 87 1005.5
20191019194538 53 205 0.0 7.0 0.00 0.16 0.16 87 1005.3
20191019193031 53 210 0.0 5.0 0.00 0.16 0.16 87 1005.2
20191019191612 53 217 0.0 5.0 0.00 0.16 0.16 87 1005.2
20191019190021 54 218 0.0 4.0 0.00 0.16 0.16 87 1005.1
20191019184534 54 230 0.0 5.0 0.00 0.16 0.16 87 1004.9
20191019183028 54 189 0.0 4.0 0.00 0.16 0.16 87 1004.7
20191019181529 54 202 0.0 4.0 0.00 0.16 0.16 87 1004.7
20191019180034 54 205 0.0 4.0 0.00 0.16 0.16 87 1004.7
20191019174521 54 205 0.0 4.0 0.00 0.16 0.16 87 1004.6
20191019173050 55 198 0.0 4.0 0.00 0.16 0.16 87 1004.5
20191019171520 55 203 0.0 3.0 0.00 0.16 0.16 87 1004.5
20191019170024 55 202 0.0 3.0 0.00 0.16 0.16 87 1004.4
20191019164750 55 207 0.0 6.0 0.00 0.16 0.16 87 1004.3
20191019163155 56 206 1.0 6.0 0.00 0.16 0.16 87 1004.1
20191019161648 56 215 0.0 4.0 0.00 0.16 0.16 87 1004.0
20191019160159 57 217 0.0 4.0 0.00 0.16 0.16 87 1003.9
20191019154704 57 218 0.0 5.0 0.00 0.16 0.16 86 1003.9
20191019153115 57 169 1.0 7.0 0.00 0.16 0.16 86 1003.8
20191019151632 58 225 0.0 7.0 0.00 0.16 0.16 86 1003.7
20191019150132 57 274 2.0 10.0 0.00 0.16 0.16 85 1003.6
20191019144635 57 201 1.0 8.0 0.00 0.16 0.16 85 1003.5
20191019143159 57 242 0.0 7.0 0.00 0.16 0.16 85 1003.5
20191019140114 57 191 0.0 5.0 0.00 0.16 0.16 84 1003.5
20191019134620 57 229 2.0 10.0 0.00 0.16 0.16 84 1003.5
20191019133112 57 190 1.0 12.0 0.00 0.16 0.16 84 1003.4
20191019131601 57 189 1.0 7.0 0.00 0.16 0.16 84 1003.4
20191019130123 57 214 2.0 10.0 0.00 0.16 0.16 84 1003.2
20191019124802 57 228 2.0 12.0 0.00 0.16 0.16 83 1003.3
20191019123112 57 187 3.0 12.0 0.00 0.16 0.16 82 1003.2
20191019121627 58 252 1.0 14.0 0.00 0.16 0.16 81 1003.2
20191019120124 58 177 4.0 10.0 0.00 0.16 0.16 83 1003.1
20191019114555 57 221 1.0 9.0 0.00 0.16 0.16 87 1003.3
20191019113150 57 219 3.0 9.0 0.00 0.16 0.16 87 1003.5
20191019111614 56 206 1.0 6.0 0.00 0.16 0.16 86 1003.5
20191019110059 56 183 1.0 7.0 0.00 0.16 0.16 84 1003.5
20191019104537 55 225 1.0 7.0 0.00 0.16 0.16 82 1003.5
20191019103047 55 197 4.0 9.0 0.00 0.16 0.16 81 1003.5
20191019101539 56 178 0.0 6.0 0.00 0.16 0.16 80 1003.4
20191019100104 55 214 2.0 6.0 0.00 0.16 0.16 80 1003.4
20191019094552 55 231 1.0 8.0 0.00 0.17 0.16 80 1003.3
20191019093057 55 201 1.0 5.0 0.01 0.17 0.16 81 1003.5
20191019091531 54 232 0.0 11.0 0.02 0.17 0.16 81 1003.5
20191019090029 54 56 3.0 10.0 0.03 0.17 0.16 81 1003.4
20191019084533 54 205 1.0 6.0 0.06 0.17 0.16 81 1003.3
20191019083020 54 56 3.0 6.0 0.06 0.17 0.15 81 1003.4